Back to catalog

CORVUS BC4

AliveScienceSSO
NORAD 43767·PAYLOAD·🇺🇸 United States

Launched Dec 3, 2018 from Vandenberg Space Force Base

Loading…

Next Passes (next 24 hours)

TLE

FreshSource: Space-Track

Epoch: Sep 14, 2026, 08:25 UTC

1 43767U 18099K   26257.35080709  .00002931  00000-0  16904-3 0  9996
2 43767  97.3986 297.7199 0009544  59.5158 300.7014 15.13092744425888

Track CORVUS BC4 in real time with AllMySat

Download on the App Store